Location: Newark
(6.1731°S, 35.7419°E)
Time: 17:05:39
(UTC+00:00)

Altair - Pass Details

Date: 21 February 2020
Orbit: 1501 x 1682 km, 47.2° (Epoch: 04 April)

Event Time Altitude Azimuth Distance (km) Brightness Sun altitude
Rises 19:55:48 0° 231° (SW) 4,641 10.5 -56.9°
Reaches altitude 10° 19:58:56 10° 236° (SW) 3,653 9.8 -57.6°
Enters shadow 20:00:47 18° 240° (WSW) 3,096 9.3 -58.0°
